[[{"header":{"parameterUnit":"m.s-1","parameterCategory":1,"la1":30.2991,"la2":30.254,"lo1":-89.0895,"lo2":-89.0444,"dy":0.0017,"dx":0.0017,"nx":28,"ny":28,"refTime":"2023-09-22T03:00:00:Z","depth":0,"parameterNumber":2,"parameterNumberName":"U-component_of_WINDS"},"data":[0,0,0,0,0,0,0,0,0,0,0,0,0,0,0,0,0,0,0,0,0,0,0,0,0,0,0,0,0,0,0,0,0,0,0,0,0,0,0,0,0,0,0,0,0,0,0,0,0,0,0,0,0,0,0,0,0,0,-1.4719,-1.4719,0,-1.4655,-1.4654,-1.4654,-1.4593,-1.4592,-1.4591,-1.4591,-1.4522,-1.452,-1.4519,0,0,0,0,0,0,0,0,0,0,0,0,0,-1.4787,-1.4786,-1.472,-1.4719,-1.4718,-1.4655,-1.4654,-1.4654,-1.4593,-1.4592,-1.4591,-1.459,-1.4522,-1.4521,-1.4519,0,0,0,0,0,0,0,0,0,0,0,0,0,-1.4744,-1.4786,-1.472,-1.468,-1.4676,-1.4656,-1.4654,-1.4653,-1.4593,-1.4592,-1.4591,-1.459,-1.4522,-1.4521,-1.4519,-1.4531,0,0,-1.4514,-1.4513,0,0,0,0,0,0,0,0,-1.4746,-1.4741,-1.4687,-1.4683,-1.4678,-1.4631,-1.4653,-1.4612,-1.4593,-1.4625,-1.4591,-1.4589,-1.4559,-1.4554,-1.4544,-1.4528,-1.4525,-1.4514,-1.4513,-1.4512,-1.4512,0,0,0,0,0,0,0,-1.475,-1.4744,-1.4694,-1.4686,-1.4681,-1.4665,-1.4657,-1.4645,-1.4599,-1.4622,-1.4617,-1.4611,-1.4556,-1.4546,-1.4542,-1.4524,-1.4514,-1.4512,-1.4511,-1.4511,-1.4515,-1.4516,0,0,0,0,0,0,-1.4759,-1.4747,-1.4696,-1.4692,-1.471,-1.4665,-1.4656,-1.4647,-1.4599,-1.459,-1.4612,-1.4608,-1.455,-1.4544,-1.454,-1.4551,-1.4512,-1.451,-1.4509,-1.4514,-1.4516,-1.4517,0,0,0,0,0,0,-1.4761,-1.4755,-1.4699,-1.4718,-1.471,-1.4665,-1.4655,-1.4647,-1.4636,-1.4591,-1.4582,-1.461,-1.4548,-1.4542,-1.4534,-1.4548,-1.451,-1.4508,-1.4513,-1.4515,-1.4516,-1.4574,0,0,0,0,0,0,-1.4763,-1.4756,-1.4761,-1.4719,-1.4709,-1.4695,-1.4656,-1.4646,-1.4634,-1.4629,-1.4587,-1.4579,-1.4547,-1.4537,-1.4533,-1.4545,-1.4507,-1.4511,-1.4514,-1.4516,-1.4571,-1.4578,-1.4583,0,0,0,0,0,-1.4766,-1.4779,-1.4761,-1.4756,-1.4714,-1.4696,-1.469,-1.4654,-1.4635,-1.464,-1.461,-1.4581,-1.4547,-1.4537,-1.4531,-1.4543,-1.451,-1.4513,-1.4515,-1.4568,-1.4576,-1.4583,0,0,0,0,0,0,-1.4822,-1.4773,-1.4753,-1.4753,-1.473,-1.4686,-1.469,-1.4664,-1.4644,-1.464,-1.4595,-1.4586,-1.4583,-1.4562,-1.4552,-1.4553,-1.4525,-1.4526,-1.4566,-1.4574,-1.458,-1.4585,-1.4505,0,0,0,0,0,-1.4835,-1.4826,-1.4782,-1.4787,-1.4776,-1.4735,-1.4726,-1.47,-1.4674,-1.4663,-1.4633,-1.4608,-1.4591,-1.4581,-1.4564,-1.4568,-1.4558,-1.4573,-1.4579,-1.4585,-1.4587,-1.4587,-1.4593,-1.4525,-1.4525,-1.4525,0,0,-1.4861,-1.4833,-1.4829,-1.4797,-1.4776,-1.4767,-1.4727,-1.4719,-1.4711,-1.4661,-1.4653,-1.463,-1.4598,-1.4597,-1.4594,-1.4579,-1.4603,-1.4588,-1.4593,-1.4591,-1.459,-1.4597,-1.4603,-1.4527,-1.4527,-1.4526,0,0,-1.4903,-1.4881,-1.4883,-1.4863,-1.4831,-1.4804,-1.4805,-1.4765,-1.4749,-1.474,-1.4703,-1.4692,-1.4665,-1.4644,-1.463,-1.4666,-1.4638,-1.4661,-1.4694,-1.4695,-1.4701,-1.4705,-1.4718,-1.4723,-1.4663,-1.4664,-1.4664,0,-1.4939,-1.4924,-1.4886,-1.4881,-1.4868,-1.4824,-1.4825,-1.4806,-1.4771,-1.4763,-1.4746,-1.4712,-1.4687,-1.468,-1.4689,-1.4679,-1.4678,-1.4666,-1.4703,-1.4707,-1.4711,-1.4723,-1.4727,-1.4667,-1.4666,-1.4666,-1.4666,0,-1.497,-1.496,-1.4965,-1.4933,-1.4921,-1.4918,-1.4879,-1.4871,-1.4847,-1.4821,-1.4813,-1.4782,-1.4758,-1.4754,-1.4729,-1.4744,-1.4735,-1.4712,-1.4683,-1.4721,-1.4731,-1.4735,-1.4671,-1.467,-1.4669,-1.4668,0,0,-1.5046,-1.4994,-1.4996,-1.4981,-1.4944,-1.4935,-1.4931,-1.4908,-1.4902,-1.4879,-1.4874,-1.4853,-1.4831,-1.4815,-1.4788,-1.4789,-1.4819,-1.4765,-1.4763,-1.4776,-1.4833,-1.4851,-1.4856,-1.48,-1.4801,-1.4802,-1.4835,0,-1.5082,-1.5072,-1.5038,-1.5038,-1.5029,-1.4987,-1.4983,-1.496,-1.4936,-1.4924,-1.4897,-1.4883,-1.4855,-1.4845,-1.4845,-1.4816,-1.483,-1.4813,-1.4794,-1.4794,-1.4804,-1.4862,-1.488,-1.4914,-1.4839,-1.484,-1.484,0,-1.5123,-1.5104,-1.5103,-1.5067,-1.5062,-1.5059,-1.5036,-1.5025,-1.4997,-1.4979,-1.4963,-1.4933,-1.4925,-1.4898,-1.4887,-1.4876,-1.4866,-1.4851,-1.4852,-1.4848,-1.4819,-1.486,-1.4923,-1.4928,-1.4846,-1.4846,-1.4845,0,-1.5178,-1.5152,-1.5149,-1.5138,-1.5095,-1.5094,-1.5076,-1.5047,-1.5036,-1.5015,-1.5008,-1.4986,-1.4974,-1.4958,-1.4923,-1.4907,-1.4915,-1.4886,-1.49,-1.4901,-1.4903,-1.4904,-1.4966,-1.4898,-1.4898,-1.4898,-1.4898,0,-1.5222,-1.5223,-1.5174,-1.5171,-1.5172,-1.5133,-1.5134,-1.5111,-1.5086,-1.5079,-1.5041,-1.5034,-1.4989,-1.4976,-1.4949,-1.4943,-1.4938,-1.4923,-1.4916,-1.4927,-1.4929,-1.492,-1.4916,-1.4899,-1.4899,-1.4899,-1.4898,0,-1.5284,-1.5251,-1.5244,-1.5205,-1.5195,-1.5197,-1.5163,-1.5159,-1.5133,-1.5124,-1.5119,-1.5079,-1.5063,-1.5026,-1.5,-1.4981,-1.4983,-1.497,-1.4993,-1.4988,-1.5004,-1.5004,-1.5063,-1.5069,-1.4998,-1.4998,-1.4999,0,-1.5314,-1.5315,-1.5276,-1.5268,-1.5252,-1.5241,-1.523,-1.5191,-1.5181,-1.515,-1.5149,-1.5131,-1.5113,-1.509,-1.5057,-1.5037,-1.5023,-1.5045,-1.5019,-1.503,-1.5023,-1.5023,-1.5023,-1.5051,-1.5052,-1.5052,-1.5053,0,-1.5372,-1.5355,-1.5341,-1.5321,-1.5309,-1.5291,-1.5271,-1.5267,-1.5224,-1.5214,-1.5198,-1.5185,-1.5159,-1.514,-1.5115,-1.5095,-1.5067,-1.5062,-1.5064,-1.5075,-1.5088,-1.5081,-1.5008,-1.506,-1.506,-1.5059,-1.5059,-1.5058,-1.5418,-1.5417,-1.539,-1.5375,-1.5356,-1.5338,-1.5333,-1.5307,-1.5293,-1.527,-1.5248,-1.5234,-1.5206,-1.5169,-1.5152,-1.514,-1.5125,-1.5129,-1.5129,-1.5131,-1.5135,-1.5091,-1.5135,-1.5135,-1.5134,-1.5134,-1.5134,0,-1.5474,-1.5454,-1.5441,-1.5415,-1.5404,-1.5379,-1.5356,-1.5347,-1.5336,-1.5313,-1.5297,-1.5279,-1.5261,-1.5228,-1.5207,-1.5203,-1.519,-1.5199,-1.5199,-1.5195,-1.5149,-1.515,-1.5211,-1.5211,-1.5211,-1.5211,-1.5211,-1.5211,-1.5501,-1.5497,-1.5478,-1.5464,-1.5444,-1.5431,-1.542,-1.5403,-1.5385,-1.5366,-1.5352,-1.533,-1.5303,-1.528,-1.5262,-1.5253,-1.5247,-1.5261,-1.5247,-1.5205,-1.5198,-1.5191,-1.5191,-1.526,-1.526,-1.5293,-1.5293,-1.5294]},{"header":{"parameterUnit":"m.s-1","parameterCategory":1,"la1":30.2991,"la2":30.254,"lo1":-89.0895,"lo2":-89.0444,"dy":0.0017,"dx":0.0017,"nx":28,"ny":28,"refTime":"2023-09-22T03:00:00:Z","depth":0,"parameterNumber":3,"parameterNumberName":"V-component_of_WINDS"},"data":[0,0,0,0,0,0,0,0,0,0,0,0,0,0,0,0,0,0,0,0,0,0,0,0,0,0,0,0,0,0,0,0,0,0,0,0,0,0,0,0,0,0,0,0,0,0,0,0,0,0,0,0,0,0,0,0,0,0,3.2625,3.2625,0,3.2579,3.2578,3.2578,3.256,3.256,3.256,3.256,3.2506,3.2505,3.2503,0,0,0,0,0,0,0,0,0,0,0,0,0,3.2694,3.2693,3.2626,3.2625,3.2624,3.2579,3.2578,3.2578,3.256,3.256,3.256,3.256,3.2507,3.2505,3.2503,0,0,0,0,0,0,0,0,0,0,0,0,0,3.2658,3.2693,3.2626,3.261,3.2608,3.2579,3.2578,3.2577,3.256,3.256,3.256,3.256,3.2507,3.2505,3.2503,3.2484,0,0,3.2496,3.2495,0,0,0,0,0,0,0,0,3.266,3.2655,3.2613,3.2611,3.2609,3.2575,3.2583,3.2546,3.256,3.2578,3.256,3.256,3.2529,3.2525,3.2515,3.2481,3.2479,3.2495,3.2494,3.2493,3.2492,0,0,0,0,0,0,0,3.2662,3.2657,3.2607,3.2612,3.261,3.2604,3.2599,3.2576,3.2552,3.2576,3.2575,3.257,3.2528,3.2518,3.2514,3.2478,3.2495,3.2493,3.2492,3.2491,3.2426,3.2426,0,0,0,0,0,0,3.2668,3.2659,3.2608,3.2605,3.2636,3.2602,3.2597,3.2586,3.2553,3.2548,3.257,3.2569,3.2521,3.2517,3.2512,3.2487,3.2493,3.2491,3.2489,3.2426,3.2426,3.2425,0,0,0,0,0,0,3.267,3.2664,3.261,3.2632,3.2625,3.2601,3.2589,3.2585,3.2575,3.2548,3.2543,3.2564,3.2521,3.2515,3.2491,3.2485,3.249,3.2488,3.2426,3.2426,3.2426,3.2438,0,0,0,0,0,0,3.2672,3.2665,3.2658,3.2632,3.2624,3.2592,3.2588,3.2584,3.2571,3.257,3.2541,3.2536,3.2521,3.2495,3.2489,3.2482,3.2486,3.2427,3.2426,3.2426,3.2438,3.2438,3.2438,0,0,0,0,0,3.2674,3.2662,3.2658,3.2652,3.2616,3.2592,3.2587,3.2571,3.2571,3.2564,3.2546,3.2537,3.2487,3.2493,3.2486,3.2478,3.2427,3.2426,3.2426,3.2438,3.2438,3.2438,0,0,0,0,0,0,3.2686,3.2658,3.2653,3.2633,3.2615,3.2589,3.2579,3.2571,3.2552,3.2551,3.2531,3.2524,3.2502,3.2487,3.2494,3.2458,3.2456,3.2454,3.2468,3.2468,3.2468,3.2471,3.2484,0,0,0,0,0,3.2686,3.2671,3.2647,3.2631,3.2623,3.2603,3.2592,3.2581,3.2561,3.2553,3.2534,3.2513,3.2493,3.2479,3.2459,3.2436,3.2429,3.2427,3.2427,3.2427,3.2425,3.2412,3.2411,3.2423,3.2423,3.2423,0,0,3.2686,3.267,3.2661,3.2633,3.2618,3.2601,3.2596,3.2578,3.2565,3.2549,3.2527,3.2512,3.2487,3.2464,3.2453,3.2451,3.2421,3.2427,3.2427,3.2425,3.2411,3.241,3.2409,3.2423,3.2423,3.2423,0,0,3.2678,3.2664,3.265,3.2635,3.2614,3.26,3.2597,3.2572,3.2562,3.254,3.2527,3.2511,3.2476,3.2459,3.2446,3.2432,3.2423,3.2426,3.2426,3.2413,3.2412,3.2411,3.2406,3.2404,3.2424,3.2424,3.2424,0,3.268,3.2656,3.2642,3.2626,3.2614,3.2601,3.2585,3.2571,3.2543,3.2534,3.2534,3.2491,3.2473,3.2445,3.2443,3.2432,3.2427,3.2429,3.2414,3.2412,3.2411,3.2406,3.2404,3.2425,3.2425,3.2425,3.2425,0,3.266,3.2644,3.2634,3.261,3.2596,3.258,3.2563,3.255,3.2542,3.2528,3.2504,3.2483,3.2459,3.2451,3.2441,3.2422,3.2422,3.2418,3.2416,3.2411,3.2406,3.2403,3.2426,3.2425,3.2425,3.2425,0,0,3.2657,3.2626,3.2623,3.2612,3.2587,3.2573,3.2556,3.2534,3.2524,3.2505,3.2489,3.2461,3.2457,3.2442,3.243,3.2419,3.241,3.2416,3.2415,3.2415,3.2387,3.239,3.2388,3.2404,3.2403,3.2403,3.2389,0,3.2645,3.2616,3.2603,3.2579,3.2563,3.2552,3.2537,3.2519,3.2506,3.2489,3.2474,3.2455,3.2451,3.2442,3.2431,3.2413,3.2404,3.2414,3.2388,3.2387,3.2394,3.2385,3.2388,3.2376,3.2387,3.2386,3.2386,0,3.2627,3.261,3.2585,3.2564,3.2556,3.2543,3.2522,3.2507,3.2487,3.2478,3.2462,3.2451,3.2432,3.2432,3.2404,3.2411,3.24,3.239,3.2389,3.2385,3.2386,3.2381,3.2371,3.2369,3.2383,3.2383,3.2383,0,3.2626,3.2598,3.2579,3.257,3.2544,3.2535,3.2524,3.2504,3.2492,3.2473,3.2464,3.2443,3.243,3.2413,3.2396,3.2398,3.2369,3.2368,3.236,3.2361,3.2354,3.2354,3.2342,3.2347,3.2347,3.2348,3.2348,0,3.2614,3.2599,3.2579,3.2567,3.255,3.2535,3.2518,3.2505,3.2488,3.2473,3.246,3.2446,3.2425,3.2407,3.2394,3.2372,3.2367,3.2358,3.2354,3.2359,3.236,3.235,3.235,3.2347,3.2347,3.2347,3.2347,0,3.261,3.2596,3.2575,3.2553,3.2547,3.2535,3.2516,3.2503,3.2491,3.2471,3.2466,3.2445,3.2424,3.2406,3.2377,3.2368,3.2345,3.2341,3.2353,3.2351,3.2344,3.2344,3.2324,3.232,3.2329,3.2329,3.2329,0,3.2603,3.2591,3.2569,3.2559,3.2548,3.2532,3.252,3.2505,3.2492,3.2469,3.2459,3.2438,3.242,3.2386,3.2367,3.2345,3.234,3.2335,3.2337,3.2342,3.2339,3.234,3.2339,3.2334,3.2334,3.2334,3.2334,0,3.2591,3.2585,3.257,3.2552,3.2539,3.2523,3.2507,3.2499,3.2481,3.2467,3.2447,3.2433,3.2405,3.2383,3.236,3.2346,3.2336,3.2334,3.2331,3.2335,3.2342,3.2338,3.2352,3.2334,3.2334,3.2334,3.2334,3.2334,3.2585,3.2575,3.2557,3.254,3.2527,3.2513,3.2501,3.2487,3.247,3.2448,3.244,3.2418,3.2398,3.2366,3.2352,3.2334,3.2333,3.2328,3.2327,3.2326,3.2326,3.2346,3.233,3.233,3.233,3.233,3.233,0,3.2572,3.2561,3.2546,3.2525,3.2512,3.2507,3.2489,3.2477,3.246,3.2443,3.2426,3.2402,3.2381,3.2362,3.2339,3.2329,3.2324,3.2323,3.2324,3.232,3.2329,3.2334,3.2328,3.2328,3.2328,3.2328,3.2328,3.2328,3.2564,3.2546,3.2539,3.2514,3.2502,3.2483,3.2473,3.2459,3.2446,3.2421,3.2404,3.2392,3.2374,3.2351,3.2331,3.2325,3.2317,3.2318,3.2311,3.2319,3.232,3.232,3.2325,3.2317,3.2317,3.2304,3.2304,3.2304]}]]